Location: Berkeley
(37.8716°N, 122.2727°W)
Time: 15:19:59
(UTC-07:00)

Envisat - Pass Details

Date: 27 April 2024
Orbit: 762 x 764 km, 98.3° (Epoch: 28 May)

Event Time Altitude Azimuth Distance (km) Brightness Sun altitude
Rises 04:15:52 0° 15° (NNE) 3,234 7.1 -21.7°
Reaches altitude 10° 04:18:12 10° 18° (NNE) 2,303 6.3 -21.4°
Maximum altitude 04:23:15 67° 101° (ESE) 826 3.2 -20.6°
Enters shadow 04:26:18 24° 179° (S) 1,541 4.2 -20.1°
